| time (UTC) | temp C | wind direction | speed KPH | gust KPH | rain 1hr cm | rain 24hr cm | rain mn cm | humidity % | barometer mb |
| 20260509203515 | 21 | 59 | 4.8 | 19.3 | 0.00 | 0.00 | 0.00 | 17 | 1019.5 |
| 20260509203033 | 21 | 249 | 6.4 | 19.3 | 0.00 | 0.00 | 0.00 | 17 | 1019.6 |
| 20260509202513 | 22 | 277 | 4.8 | 20.9 | 0.00 | 0.00 | 0.00 | 17 | 1019.6 |
| 20260509202011 | 22 | 67 | 3.2 | 20.9 | 0.00 | 0.00 | 0.00 | 18 | 1019.2 |
| 20260509201532 | 22 | 242 | 4.8 | 24.1 | 0.00 | 0.00 | 0.00 | 17 | 1019.4 |
| 20260509201013 | 22 | 269 | 4.8 | 24.1 | 0.00 | 0.00 | 0.00 | 18 | 1019.3 |
| 20260509200513 | 22 | 269 | 4.8 | 14.5 | 0.00 | 0.00 | 0.00 | 17 | 1019.5 |
| 20260509200037 | 22 | 53 | 4.8 | 14.5 | 0.00 | 0.00 | 0.00 | 17 | 1019.6 |
| 20260509195515 | 22 | 222 | 3.2 | 17.7 | 0.00 | 0.00 | 0.00 | 17 | 1019.8 |
| 20260509195013 | 22 | 212 | 6.4 | 17.7 | 0.00 | 0.00 | 0.00 | 17 | 1019.8 |
| 20260509194530 | 22 | 329 | 4.8 | 14.5 | 0.00 | 0.00 | 0.00 | 18 | 1019.8 |
| 20260509194010 | 22 | 272 | 4.8 | 19.3 | 0.00 | 0.00 | 0.00 | 18 | 1019.8 |
| 20260509193516 | 22 | 271 | 4.8 | 19.3 | 0.00 | 0.00 | 0.00 | 18 | 1019.8 |
| 20260509193031 | 22 | 65 | 6.4 | 12.9 | 0.00 | 0.00 | 0.00 | 19 | 1019.9 |
| 20260509192513 | 22 | 277 | 3.2 | 17.7 | 0.00 | 0.00 | 0.00 | 18 | 1019.8 |
| 20260509192017 | 21 | 248 | 6.4 | 17.7 | 0.00 | 0.00 | 0.00 | 18 | 1020.0 |
| 20260509191530 | 22 | 274 | 3.2 | 16.1 | 0.00 | 0.00 | 0.00 | 18 | 1020.0 |
| 20260509191013 | 22 | 253 | 4.8 | 20.9 | 0.00 | 0.00 | 0.00 | 17 | 1019.9 |
| 20260509190513 | 22 | 267 | 4.8 | 20.9 | 0.00 | 0.00 | 0.00 | 18 | 1020.0 |
| 20260509190032 | 22 | 227 | 4.8 | 20.9 | 0.00 | 0.00 | 0.00 | 19 | 1020.0 |
| 20260509185511 | 22 | 325 | 4.8 | 17.7 | 0.00 | 0.00 | 0.00 | 18 | 1020.1 |
| 20260509185012 | 22 | 278 | 6.4 | 17.7 | 0.00 | 0.00 | 0.00 | 18 | 1020.0 |
| 20260509184538 | 22 | 306 | 6.4 | 17.7 | 0.00 | 0.00 | 0.00 | 18 | 1020.2 |
| 20260509184013 | 22 | 255 | 4.8 | 17.7 | 0.00 | 0.00 | 0.00 | 18 | 1019.9 |
| 20260509183513 | 22 | 282 | 6.4 | 17.7 | 0.00 | 0.00 | 0.00 | 19 | 1020.1 |
| 20260509183030 | 21 | 240 | 3.2 | 12.9 | 0.00 | 0.00 | 0.00 | 18 | 1020.2 |
| 20260509182514 | 21 | 304 | 3.2 | 12.9 | 0.00 | 0.00 | 0.00 | 21 | 1020.0 |
| 20260509182013 | 21 | 0 | 4.8 | 12.9 | 0.00 | 0.00 | 0.00 | 18 | 1020.1 |
| 20260509181534 | 21 | 268 | 3.2 | 12.9 | 0.00 | 0.00 | 0.00 | 19 | 1020.4 |
| 20260509181014 | 21 | 269 | 3.2 | 12.9 | 0.00 | 0.00 | 0.00 | 19 | 1020.4 |
| 20260509180514 | 21 | 283 | 4.8 | 14.5 | 0.00 | 0.00 | 0.00 | 20 | 1020.3 |
| 20260509180032 | 21 | 252 | 3.2 | 14.5 | 0.00 | 0.00 | 0.00 | 19 | 1020.3 |
| 20260509175516 | 21 | 249 | 6.4 | 12.9 | 0.00 | 0.00 | 0.00 | 19 | 1020.4 |
| 20260509175015 | 21 | 255 | 4.8 | 9.7 | 0.00 | 0.00 | 0.00 | 19 | 1020.4 |
| 20260509174535 | 20 | 55 | 1.6 | 11.3 | 0.00 | 0.00 | 0.00 | 21 | 1020.3 |
| 20260509174014 | 20 | 239 | 4.8 | 14.5 | 0.00 | 0.00 | 0.00 | 20 | 1020.5 |
| 20260509173513 | 20 | 283 | 6.4 | 14.5 | 0.00 | 0.00 | 0.00 | 19 | 1020.6 |
| 20260509173030 | 20 | 284 | 3.2 | 14.5 | 0.00 | 0.00 | 0.00 | 22 | 1020.5 |
| 20260509172514 | 20 | 282 | 1.6 | 16.1 | 0.00 | 0.00 | 0.00 | 20 | 1020.6 |
| 20260509172015 | 20 | 226 | 4.8 | 16.1 | 0.00 | 0.00 | 0.00 | 21 | 1020.7 |
| 20260509171533 | 20 | 342 | 4.8 | 14.5 | 0.00 | 0.00 | 0.00 | 24 | 1020.6 |
| 20260509171011 | 20 | 16 | 3.2 | 12.9 | 0.00 | 0.00 | 0.00 | 21 | 1020.7 |
| 20260509170510 | 19 | 12 | 1.6 | 8.0 | 0.00 | 0.00 | 0.00 | 22 | 1020.6 |
| 20260509170032 | 19 | 268 | 3.2 | 14.5 | 0.00 | 0.00 | 0.00 | 23 | 1020.6 |
| 20260509165513 | 19 | 271 | 3.2 | 14.5 | 0.00 | 0.00 | 0.00 | 21 | 1020.7 |
| 20260509165014 | 19 | 310 | 3.2 | 8.0 | 0.00 | 0.00 | 0.00 | 23 | 1020.5 |
| 20260509164532 | 19 | 61 | 3.2 | 9.7 | 0.00 | 0.00 | 0.00 | 22 | 1020.5 |
| 20260509164014 | 19 | 278 | 3.2 | 16.1 | 0.00 | 0.00 | 0.00 | 22 | 1020.5 |
| 20260509163530 | 19 | 51 | 1.6 | 19.3 | 0.00 | 0.00 | 0.00 | 22 | 1020.5 |
| 20260509163041 | 19 | 280 | 4.8 | 20.9 | 0.00 | 0.00 | 0.00 | 26 | 1020.6 |
| 20260509162513 | 18 | 59 | 4.8 | 20.9 | 0.00 | 0.00 | 0.00 | 22 | 1020.5 |
| 20260509162014 | 18 | 320 | 3.2 | 14.5 | 0.00 | 0.00 | 0.00 | 23 | 1020.5 |
| 20260509161530 | 18 | 266 | 6.4 | 14.5 | 0.00 | 0.00 | 0.00 | 22 | 1020.5 |
| 20260509161011 | 18 | 306 | 3.2 | 16.1 | 0.00 | 0.00 | 0.00 | 23 | 1020.4 |
| 20260509160514 | 18 | 265 | 4.8 | 16.1 | 0.00 | 0.00 | 0.00 | 22 | 1020.5 |
| 20260509160032 | 17 | 285 | 3.2 | 9.7 | 0.00 | 0.00 | 0.00 | 26 | 1020.5 |
| 20260509155514 | 17 | 234 | 3.2 | 9.7 | 0.00 | 0.00 | 0.00 | 25 | 1020.5 |
| 20260509155015 | 17 | 294 | 4.8 | 9.7 | 0.00 | 0.00 | 0.00 | 26 | 1020.5 |
| 20260509154540 | 16 | 277 | 1.6 | 8.0 | 0.00 | 0.00 | 0.00 | 28 | 1020.4 |
| 20260509154016 | 16 | 272 | 3.2 | 8.0 | 0.00 | 0.00 | 0.00 | 29 | 1020.5 |
| 20260509153514 | 15 | 299 | 3.2 | 8.0 | 0.00 | 0.00 | 0.00 | 30 | 1020.6 |
| 20260509153033 | 15 | 195 | 0.0 | 4.8 | 0.00 | 0.00 | 0.00 | 31 | 1020.5 |
| 20260509152513 | 14 | 69 | 0.0 | 3.2 | 0.00 | 0.00 | 0.00 | 36 | 1020.6 |
| 20260509152016 | 13 | 71 | 0.0 | 3.2 | 0.00 | 0.00 | 0.00 | 41 | 1020.5 |
| 20260509151529 | 12 | 0 | 0.0 | 3.2 | 0.00 | 0.00 | 0.00 | 42 | 1020.6 |
| 20260509151013 | 12 | 0 | 0.0 | 3.2 | 0.00 | 0.00 | 0.00 | 44 | 1020.5 |
| 20260509150511 | 11 | 71 | 0.0 | 3.2 | 0.00 | 0.00 | 0.00 | 45 | 1020.6 |
| 20260509150029 | 11 | 0 | 0.0 | 3.2 | 0.00 | 0.00 | 0.00 | 45 | 1020.6 |
| 20260509145513 | 11 | 71 | 0.0 | 3.2 | 0.00 | 0.00 | 0.00 | 47 | 1020.6 |
| 20260509145013 | 10 | 71 | 0.0 | 3.2 | 0.00 | 0.00 | 0.00 | 47 | 1020.6 |
| 20260509144532 | 10 | 0 | 0.0 | 3.2 | 0.00 | 0.00 | 0.00 | 48 | 1020.7 |
| 20260509144013 | 10 | 71 | 0.0 | 3.2 | 0.00 | 0.00 | 0.00 | 48 | 1020.6 |
| 20260509143511 | 9 | 71 | 0.0 | 3.2 | 0.00 | 0.00 | 0.00 | 51 | 1020.7 |
| 20260509143042 | 8 | 0 | 0.0 | 3.2 | 0.00 | 0.00 | 0.00 | 51 | 1020.6 |
| 20260509142511 | 8 | 0 | 0.0 | 3.2 | 0.00 | 0.00 | 0.00 | 51 | 1020.7 |
| 20260509142011 | 8 | 0 | 0.0 | 3.2 | 0.00 | 0.00 | 0.00 | 52 | 1020.6 |
| 20260509141539 | 7 | 0 | 0.0 | 3.2 | 0.00 | 0.00 | 0.00 | 54 | 1020.5 |
| 20260509141014 | 7 | 71 | 0.0 | 3.2 | 0.00 | 0.00 | 0.00 | 56 | 1020.6 |
| 20260509140511 | 6 | 0 | 0.0 | 3.2 | 0.00 | 0.00 | 0.00 | 56 | 1020.6 |
| 20260509140030 | 6 | 0 | 0.0 | 3.2 | 0.00 | 0.00 | 0.00 | 58 | 1020.5 |
| 20260509135511 | 5 | 71 | 0.0 | 3.2 | 0.00 | 0.00 | 0.00 | 59 | 1020.4 |
| 20260509135014 | 5 | 0 | 0.0 | 3.2 | 0.00 | 0.00 | 0.00 | 60 | 1020.3 |
| 20260509134530 | 5 | 0 | 0.0 | 3.2 | 0.00 | 0.00 | 0.00 | 60 | 1020.3 |
| 20260509134012 | 5 | 0 | 0.0 | 3.2 | 0.00 | 0.00 | 0.00 | 60 | 1020.2 |
| 20260509133512 | 5 | 0 | 0.0 | 3.2 | 0.00 | 0.00 | 0.00 | 60 | 1020.2 |
| 20260509133029 | 4 | 71 | 0.0 | 3.2 | 0.00 | 0.00 | 0.00 | 60 | 1020.2 |
| 20260509132513 | 4 | 71 | 0.0 | 3.2 | 0.00 | 0.00 | 0.00 | 60 | 1020.2 |
| 20260509132013 | 4 | 0 | 0.0 | 3.2 | 0.00 | 0.00 | 0.00 | 61 | 1020.2 |
| 20260509131536 | 3 | 71 | 0.0 | 3.2 | 0.00 | 0.00 | 0.00 | 62 | 1020.1 |
| 20260509131018 | 3 | 0 | 0.0 | 1.6 | 0.00 | 0.00 | 0.00 | 60 | 1020.3 |
| 20260509130512 | 3 | 0 | 0.0 | 3.2 | 0.00 | 0.00 | 0.00 | 60 | 1020.2 |
| 20260509130039 | 3 | 0 | 0.0 | 3.2 | 0.00 | 0.00 | 0.00 | 61 | 1020.1 |
| 20260509125518 | 3 | 0 | 0.0 | 3.2 | 0.00 | 0.00 | 0.00 | 58 | 1020.1 |
| 20260509125013 | 3 | 0 | 0.0 | 3.2 | 0.00 | 0.00 | 0.00 | 58 | 1020.1 |
| 20260509124535 | 3 | 0 | 0.0 | 3.2 | 0.00 | 0.00 | 0.00 | 57 | 1020.0 |
| 20260509124013 | 3 | 0 | 0.0 | 1.6 | 0.00 | 0.00 | 0.00 | 56 | 1020.0 |
| 20260509123512 | 4 | 0 | 0.0 | 1.6 | 0.00 | 0.00 | 0.00 | 56 | 1019.9 |
| 20260509123043 | 4 | 0 | 0.0 | 1.6 | 0.00 | 0.00 | 0.00 | 55 | 1019.9 |
| 20260509122512 | 4 | 0 | 0.0 | 0.0 | 0.00 | 0.00 | 0.00 | 54 | 1019.8 |
| 20260509122013 | 5 | 0 | 0.0 | 3.2 | 0.00 | 0.00 | 0.00 | 55 | 1019.7 |
| 20260509121531 | 5 | 0 | 0.0 | 3.2 | 0.00 | 0.00 | 0.00 | 54 | 1019.5 |
| 20260509121012 | 5 | 75 | 0.0 | 3.2 | 0.00 | 0.00 | 0.00 | 52 | 1019.6 |
| 20260509120513 | 5 | 0 | 0.0 | 3.2 | 0.00 | 0.00 | 0.00 | 51 | 1019.5 |
| 20260509120030 | 5 | 0 | 0.0 | 3.2 | 0.00 | 0.00 | 0.00 | 53 | 1019.5 |
| 20260509115511 | 5 | 0 | 0.0 | 3.2 | 0.00 | 0.00 | 0.00 | 52 | 1019.5 |
| 20260509115020 | 5 | 195 | 0.0 | 3.2 | 0.00 | 0.00 | 0.00 | 52 | 1019.3 |
| 20260509114535 | 5 | 0 | 0.0 | 4.8 | 0.00 | 0.00 | 0.00 | 52 | 1019.1 |
| 20260509114014 | 5 | 165 | 0.0 | 4.8 | 0.00 | 0.00 | 0.00 | 54 | 1019.0 |
| 20260509113514 | 5 | 59 | 0.0 | 3.2 | 0.00 | 0.00 | 0.00 | 55 | 1019.1 |
| 20260509113036 | 5 | 59 | 0.0 | 3.2 | 0.00 | 0.00 | 0.00 | 56 | 1018.7 |
| 20260509112511 | 5 | 59 | 0.0 | 3.2 | 0.00 | 0.00 | 0.00 | 55 | 1018.4 |
| 20260509112013 | 5 | 59 | 0.0 | 1.6 | 0.00 | 0.00 | 0.00 | 55 | 1018.4 |
| 20260509111542 | 4 | 0 | 0.0 | 1.6 | 0.00 | 0.00 | 0.00 | 55 | 1018.4 |
| 20260509111014 | 4 | 0 | 0.0 | 0.0 | 0.00 | 0.00 | 0.00 | 56 | 1018.4 |
| 20260509110513 | 4 | 0 | 0.0 | 0.0 | 0.00 | 0.00 | 0.00 | 56 | 1018.3 |
| 20260509110029 | 4 | 0 | 0.0 | 0.0 | 0.00 | 0.00 | 0.00 | 56 | 1018.4 |
| 20260509105514 | 4 | 0 | 0.0 | 0.0 | 0.00 | 0.00 | 0.00 | 56 | 1018.3 |
| 20260509105010 | 4 | 0 | 0.0 | 1.6 | 0.00 | 0.00 | 0.00 | 56 | 1018.3 |
| 20260509104534 | 5 | 0 | 0.0 | 3.2 | 0.00 | 0.00 | 0.00 | 56 | 1018.3 |
| 20260509104011 | 5 | 0 | 0.0 | 3.2 | 0.00 | 0.00 | 0.00 | 56 | 1018.4 |
| 20260509103514 | 5 | 0 | 0.0 | 3.2 | 0.00 | 0.00 | 0.00 | 56 | 1018.3 |
| 20260509103030 | 5 | 59 | 0.0 | 3.2 | 0.00 | 0.00 | 0.00 | 56 | 1018.4 |
| 20260509102514 | 5 | 59 | 0.0 | 3.2 | 0.00 | 0.00 | 0.00 | 56 | 1018.4 |
| 20260509102010 | 5 | 0 | 0.0 | 3.2 | 0.00 | 0.00 | 0.00 | 56 | 1018.5 |
| 20260509101534 | 5 | 59 | 0.0 | 3.2 | 0.00 | 0.00 | 0.00 | 57 | 1018.6 |
| 20260509101011 | 5 | 0 | 0.0 | 3.2 | 0.00 | 0.00 | 0.00 | 56 | 1018.7 |
| 20260509100514 | 5 | 0 | 0.0 | 3.2 | 0.00 | 0.00 | 0.00 | 55 | 1018.8 |
| 20260509100033 | 5 | 0 | 0.0 | 3.2 | 0.00 | 0.00 | 0.00 | 55 | 1018.8 |
| 20260509095512 | 5 | 0 | 0.0 | 3.2 | 0.00 | 0.00 | 0.00 | 55 | 1018.9 |
| 20260509095011 | 5 | 59 | 0.0 | 3.2 | 0.00 | 0.00 | 0.00 | 56 | 1018.9 |
| 20260509094534 | 4 | 0 | 0.0 | 3.2 | 0.00 | 0.00 | 0.00 | 56 | 1018.8 |
| 20260509094014 | 4 | 59 | 0.0 | 3.2 | 0.00 | 0.00 | 0.00 | 56 | 1018.8 |
| 20260509093511 | 4 | 0 | 0.0 | 3.2 | 0.00 | 0.00 | 0.00 | 56 | 1018.7 |
| 20260509093033 | 4 | 0 | 0.0 | 3.2 | 0.00 | 0.00 | 0.00 | 56 | 1018.7 |
| 20260509092515 | 4 | 0 | 0.0 | 3.2 | 0.00 | 0.00 | 0.00 | 57 | 1018.9 |
| 20260509092014 | 4 | 59 | 0.0 | 3.2 | 0.00 | 0.00 | 0.00 | 58 | 1018.9 |
| 20260509091537 | 4 | 59 | 0.0 | 3.2 | 0.00 | 0.00 | 0.00 | 58 | 1018.7 |
| 20260509091014 | 4 | 0 | 0.0 | 0.0 | 0.00 | 0.00 | 0.00 | 57 | 1018.7 |
| 20260509090514 | 4 | 0 | 0.0 | 3.2 | 0.00 | 0.00 | 0.00 | 57 | 1018.7 |
| 20260509090032 | 4 | 0 | 0.0 | 3.2 | 0.00 | 0.00 | 0.00 | 57 | 1018.8 |
| 20260509085511 | 4 | 0 | 0.0 | 3.2 | 0.00 | 0.00 | 0.00 | 57 | 1018.8 |
| 20260509085012 | 4 | 0 | 0.0 | 3.2 | 0.00 | 0.00 | 0.00 | 57 | 1018.9 |
| 20260509084532 | 4 | 59 | 0.0 | 0.0 | 0.00 | 0.00 | 0.00 | 57 | 1018.9 |
| 20260509084013 | 4 | 0 | 0.0 | 0.0 | 0.00 | 0.00 | 0.00 | 55 | 1019.1 |
| 20260509083512 | 4 | 0 | 0.0 | 0.0 | 0.00 | 0.00 | 0.00 | 55 | 1019.1 |
| 20260509083039 | 5 | 0 | 0.0 | 0.0 | 0.00 | 0.00 | 0.00 | 56 | 1019.1 |
| 20260509082512 | 5 | 0 | 0.0 | 3.2 | 0.00 | 0.00 | 0.00 | 55 | 1019.1 |
| 20260509082013 | 5 | 0 | 0.0 | 3.2 | 0.00 | 0.00 | 0.00 | 55 | 1019.1 |
| 20260509081533 | 5 | 0 | 0.0 | 3.2 | 0.00 | 0.00 | 0.00 | 55 | 1019.1 |
| 20260509081012 | 5 | 0 | 0.0 | 3.2 | 0.00 | 0.00 | 0.00 | 55 | 1019.1 |
| 20260509080515 | 5 | 59 | 0.0 | 3.2 | 0.00 | 0.00 | 0.00 | 54 | 1019.2 |
| 20260509080034 | 5 | 59 | 0.0 | 3.2 | 0.00 | 0.00 | 0.00 | 54 | 1019.2 |
| 20260509075510 | 5 | 0 | 0.0 | 0.0 | 0.00 | 0.00 | 0.00 | 54 | 1019.2 |
| 20260509075015 | 5 | 0 | 0.0 | 0.0 | 0.00 | 0.00 | 0.00 | 53 | 1019.2 |
| 20260509074531 | 5 | 0 | 0.0 | 0.0 | 0.00 | 0.00 | 0.00 | 52 | 1019.3 |
| 20260509074016 | 5 | 0 | 0.0 | 3.2 | 0.00 | 0.00 | 0.00 | 52 | 1019.3 |
| 20260509073511 | 5 | 0 | 0.0 | 3.2 | 0.00 | 0.00 | 0.00 | 51 | 1019.4 |
| 20260509073038 | 5 | 59 | 0.0 | 3.2 | 0.00 | 0.00 | 0.00 | 52 | 1019.5 |
| 20260509072514 | 5 | 59 | 0.0 | 3.2 | 0.00 | 0.00 | 0.00 | 51 | 1019.5 |
| 20260509072012 | 5 | 0 | 0.0 | 3.2 | 0.00 | 0.00 | 0.00 | 52 | 1019.5 |
| 20260509071532 | 5 | 59 | 0.0 | 3.2 | 0.00 | 0.00 | 0.00 | 52 | 1019.5 |
| 20260509071011 | 5 | 0 | 0.0 | 1.6 | 0.00 | 0.00 | 0.00 | 54 | 1019.5 |
| 20260509070512 | 5 | 0 | 0.0 | 0.0 | 0.00 | 0.00 | 0.00 | 50 | 1019.5 |
| 20260509070033 | 6 | 0 | 0.0 | 0.0 | 0.00 | 0.00 | 0.00 | 50 | 1019.6 |
| 20260509065516 | 6 | 0 | 0.0 | 3.2 | 0.00 | 0.00 | 0.00 | 51 | 1019.6 |
| 20260509065011 | 6 | 0 | 0.0 | 3.2 | 0.00 | 0.00 | 0.00 | 50 | 1019.7 |
| 20260509064533 | 6 | 0 | 0.0 | 3.2 | 0.00 | 0.00 | 0.00 | 47 | 1019.6 |
| 20260509064014 | 6 | 0 | 0.0 | 0.0 | 0.00 | 0.00 | 0.00 | 48 | 1019.7 |
| 20260509063511 | 6 | 0 | 0.0 | 0.0 | 0.00 | 0.00 | 0.00 | 47 | 1019.7 |
| 20260509063036 | 7 | 0 | 0.0 | 0.0 | 0.00 | 0.00 | 0.00 | 45 | 1019.6 |
| 20260509062510 | 7 | 0 | 0.0 | 0.0 | 0.00 | 0.00 | 0.00 | 45 | 1019.7 |
| 20260509062013 | 7 | 0 | 0.0 | 0.0 | 0.00 | 0.00 | 0.00 | 44 | 1019.7 |
| 20260509061542 | 7 | 0 | 0.0 | 0.0 | 0.00 | 0.00 | 0.00 | 44 | 1019.7 |
| 20260509061013 | 7 | 0 | 0.0 | 0.0 | 0.00 | 0.00 | 0.00 | 44 | 1019.7 |
| 20260509060510 | 7 | 0 | 0.0 | 0.0 | 0.00 | 0.00 | 0.00 | 44 | 1019.7 |
| 20260509060031 | 7 | 0 | 0.0 | 0.0 | 0.00 | 0.00 | 0.00 | 44 | 1019.6 |
| 20260509055520 | 7 | 0 | 0.0 | 3.2 | 0.00 | 0.00 | 0.00 | 44 | 1019.5 |
| 20260509055017 | 7 | 0 | 0.0 | 3.2 | 0.00 | 0.00 | 0.00 | 44 | 1019.6 |
| 20260509054531 | 7 | 0 | 0.0 | 3.2 | 0.00 | 0.00 | 0.00 | 44 | 1019.5 |
| 20260509054014 | 7 | 0 | 0.0 | 3.2 | 0.00 | 0.00 | 0.00 | 44 | 1019.5 |
| 20260509053513 | 7 | 0 | 0.0 | 3.2 | 0.00 | 0.00 | 0.00 | 44 | 1019.5 |
| 20260509053050 | 7 | 59 | 0.0 | 3.2 | 0.00 | 0.00 | 0.00 | 43 | 1019.5 |
| 20260509052511 | 7 | 0 | 0.0 | 3.2 | 0.00 | 0.00 | 0.00 | 43 | 1019.4 |
| 20260509052012 | 7 | 0 | 0.0 | 0.0 | 0.00 | 0.00 | 0.00 | 43 | 1019.5 |
| 20260509051534 | 7 | 0 | 0.0 | 3.2 | 0.00 | 0.00 | 0.00 | 43 | 1019.5 |
| 20260509051014 | 7 | 0 | 0.0 | 3.2 | 0.00 | 0.00 | 0.00 | 43 | 1019.5 |
| 20260509050511 | 7 | 0 | 0.0 | 0.0 | 0.00 | 0.00 | 0.00 | 43 | 1019.5 |
| 20260509050031 | 8 | 0 | 0.0 | 0.0 | 0.00 | 0.00 | 0.00 | 42 | 1019.5 |
| 20260509045514 | 8 | 0 | 0.0 | 0.0 | 0.00 | 0.00 | 0.00 | 42 | 1019.5 |
| 20260509045011 | 8 | 0 | 0.0 | 0.0 | 0.00 | 0.00 | 0.00 | 43 | 1019.6 |
| 20260509044538 | 8 | 0 | 0.0 | 0.0 | 0.00 | 0.00 | 0.00 | 41 | 1019.6 |
| 20260509044011 | 8 | 0 | 0.0 | 0.0 | 0.00 | 0.00 | 0.00 | 43 | 1019.6 |
| 20260509043510 | 8 | 0 | 0.0 | 1.6 | 0.00 | 0.00 | 0.00 | 43 | 1019.6 |
| 20260509043030 | 8 | 0 | 0.0 | 3.2 | 0.00 | 0.00 | 0.00 | 42 | 1019.6 |
| 20260509042512 | 9 | 0 | 0.0 | 3.2 | 0.00 | 0.00 | 0.00 | 41 | 1019.6 |
| 20260509042014 | 9 | 59 | 0.0 | 3.2 | 0.00 | 0.00 | 0.00 | 41 | 1019.6 |
| 20260509041530 | 9 | 0 | 0.0 | 3.2 | 0.00 | 0.00 | 0.00 | 40 | 1019.6 |
| 20260509041014 | 10 | 0 | 0.0 | 3.2 | 0.00 | 0.00 | 0.00 | 40 | 1019.6 |
| 20260509040513 | 10 | 59 | 0.0 | 3.2 | 0.00 | 0.00 | 0.00 | 38 | 1019.5 |
| 20260509040033 | 10 | 0 | 0.0 | 3.2 | 0.00 | 0.00 | 0.00 | 39 | 1019.5 |
| 20260509035547 | 10 | 59 | 0.0 | 3.2 | 0.00 | 0.00 | 0.00 | 38 | 1019.4 |
| 20260509034535 | 11 | 59 | 0.0 | 3.2 | 0.00 | 0.00 | 0.00 | 36 | 1019.3 |
| 20260509034010 | 11 | 59 | 0.0 | 3.2 | 0.00 | 0.00 | 0.00 | 34 | 1019.3 |
| 20260509033515 | 11 | 0 | 0.0 | 3.2 | 0.00 | 0.00 | 0.00 | 33 | 1019.3 |
| 20260509033044 | 12 | 0 | 0.0 | 0.0 | 0.00 | 0.00 | 0.00 | 33 | 1019.3 |
| 20260509032511 | 12 | 0 | 0.0 | 0.0 | 0.00 | 0.00 | 0.00 | 32 | 1019.2 |
| 20260509032016 | 12 | 0 | 0.0 | 0.0 | 0.00 | 0.00 | 0.00 | 31 | 1019.2 |
| 20260509031533 | 13 | 0 | 0.0 | 0.0 | 0.00 | 0.00 | 0.00 | 30 | 1019.2 |
| 20260509031012 | 13 | 0 | 0.0 | 3.2 | 0.00 | 0.00 | 0.00 | 30 | 1019.2 |
| 20260509030514 | 13 | 0 | 0.0 | 3.2 | 0.00 | 0.00 | 0.00 | 29 | 1019.1 |
| 20260509030030 | 14 | 59 | 0.0 | 3.2 | 0.00 | 0.00 | 0.00 | 31 | 1019.0 |
| 20260509025514 | 14 | 0 | 0.0 | 0.0 | 0.00 | 0.00 | 0.00 | 28 | 1018.9 |
| 20260509025013 | 15 | 0 | 0.0 | 0.0 | 0.00 | 0.00 | 0.00 | 28 | 1018.7 |
| 20260509024530 | 15 | 0 | 0.0 | 3.2 | 0.00 | 0.00 | 0.00 | 27 | 1018.7 |
| 20260509024014 | 15 | 0 | 0.0 | 3.2 | 0.00 | 0.00 | 0.00 | 26 | 1018.6 |
| 20260509023514 | 16 | 0 | 0.0 | 3.2 | 0.00 | 0.00 | 0.00 | 25 | 1018.6 |
| 20260509023033 | 16 | 0 | 0.0 | 3.2 | 0.00 | 0.00 | 0.00 | 25 | 1018.6 |
| 20260509022515 | 17 | 0 | 0.0 | 3.2 | 0.00 | 0.00 | 0.00 | 24 | 1018.6 |
| 20260509022012 | 17 | 0 | 0.0 | 3.2 | 0.00 | 0.00 | 0.00 | 23 | 1018.5 |
| 20260509021530 | 17 | 59 | 0.0 | 3.2 | 0.00 | 0.00 | 0.00 | 23 | 1018.4 |
| 20260509021011 | 18 | 59 | 0.0 | 3.2 | 0.00 | 0.00 | 0.00 | 22 | 1018.4 |
| 20260509020514 | 18 | 59 | 0.0 | 3.2 | 0.00 | 0.00 | 0.00 | 21 | 1018.3 |
| 20260509020036 | 19 | 0 | 0.0 | 3.2 | 0.00 | 0.00 | 0.00 | 21 | 1018.2 |
| 20260509015511 | 19 | 0 | 0.0 | 4.8 | 0.00 | 0.00 | 0.00 | 20 | 1018.2 |
| 20260509015013 | 20 | 59 | 0.0 | 4.8 | 0.00 | 0.00 | 0.00 | 20 | 1018.2 |
| 20260509014535 | 20 | 270 | 0.0 | 3.2 | 0.00 | 0.00 | 0.00 | 19 | 1018.2 |
| 20260509014017 | 20 | 0 | 0.0 | 3.2 | 0.00 | 0.00 | 0.00 | 19 | 1018.1 |
| 20260509013515 | 20 | 270 | 0.0 | 4.8 | 0.00 | 0.00 | 0.00 | 19 | 1018.1 |
| 20260509013034 | 20 | 52 | 1.6 | 4.8 | 0.00 | 0.00 | 0.00 | 19 | 1018.0 |
| 20260509012512 | 20 | 51 | 1.6 | 6.4 | 0.00 | 0.00 | 0.00 | 19 | 1018.0 |
| 20260509012011 | 20 | 269 | 1.6 | 6.4 | 0.00 | 0.00 | 0.00 | 19 | 1017.9 |
| 20260509011532 | 20 | 272 | 1.6 | 6.4 | 0.00 | 0.00 | 0.00 | 19 | 1017.9 |
| 20260509011012 | 20 | 249 | 1.6 | 6.4 | 0.00 | 0.00 | 0.00 | 19 | 1017.9 |
| 20260509010511 | 20 | 271 | 1.6 | 6.4 | 0.00 | 0.00 | 0.00 | 19 | 1018.0 |
| 20260509010031 | 21 | 267 | 0.0 | 6.4 | 0.00 | 0.00 | 0.00 | 19 | 1017.9 |
| 20260509005515 | 21 | 212 | 1.6 | 11.3 | 0.00 | 0.00 | 0.00 | 18 | 1017.9 |
| 20260509005011 | 21 | 221 | 3.2 | 17.7 | 0.00 | 0.00 | 0.00 | 18 | 1018.0 |
| 20260509004537 | 21 | 315 | 4.8 | 17.7 | 0.00 | 0.00 | 0.00 | 18 | 1017.9 |
| 20260509004014 | 22 | 284 | 6.4 | 14.5 | 0.00 | 0.00 | 0.00 | 17 | 1018.0 |
| 20260509003512 | 22 | 268 | 1.6 | 14.5 | 0.00 | 0.00 | 0.00 | 17 | 1017.9 |
| 20260509003037 | 22 | 13 | 3.2 | 14.5 | 0.00 | 0.00 | 0.00 | 17 | 1017.9 |
| 20260509002514 | 22 | 295 | 4.8 | 14.5 | 0.00 | 0.00 | 0.00 | 17 | 1018.0 |
| 20260509002014 | 22 | 268 | 4.8 | 12.9 | 0.00 | 0.00 | 0.00 | 17 | 1018.0 |
| 20260509001532 | 23 | 55 | 3.2 | 11.3 | 0.00 | 0.00 | 0.00 | 17 | 1018.0 |
| 20260509001015 | 22 | 57 | 3.2 | 11.3 | 0.00 | 0.00 | 0.00 | 17 | 1017.9 |
| 20260509000514 | 22 | 315 | 1.6 | 8.0 | 0.00 | 0.00 | 0.00 | 18 | 1017.9 |
| 20260509000030 | 22 | 267 | 3.2 | 8.0 | 0.00 | 0.00 | 0.00 | 19 | 1017.9 |
| 20260508235511 | 22 | 248 | 1.6 | 16.1 | 0.00 | 0.00 | 0.00 | 17 | 1017.9 |
| 20260508235012 | 22 | 271 | 3.2 | 16.1 | 0.00 | 0.00 | 0.00 | 17 | 1017.9 |
| 20260508234531 | 22 | 204 | 4.8 | 16.1 | 0.00 | 0.00 | 0.00 | 17 | 1017.9 |
| 20260508234011 | 22 | 242 | 3.2 | 17.7 | 0.00 | 0.00 | 0.00 | 16 | 1017.9 |
| 20260508233512 | 22 | 234 | 4.8 | 17.7 | 0.00 | 0.00 | 0.00 | 16 | 1017.9 |
| 20260508233029 | 22 | 283 | 4.8 | 16.1 | 0.00 | 0.00 | 0.00 | 16 | 1018.0 |
| 20260508232511 | 22 | 281 | 6.4 | 11.3 | 0.00 | 0.00 | 0.00 | 16 | 1018.1 |
| 20260508232012 | 22 | 352 | 3.2 | 19.3 | 0.00 | 0.00 | 0.00 | 16 | 1017.9 |
| 20260508231530 | 22 | 221 | 6.4 | 19.3 | 0.00 | 0.00 | 0.00 | 16 | 1017.9 |
| 20260508231014 | 22 | 246 | 6.4 | 17.7 | 0.00 | 0.00 | 0.00 | 16 | 1017.9 |
| 20260508230511 | 22 | 312 | 4.8 | 14.5 | 0.00 | 0.00 | 0.00 | 16 | 1017.7 |
| 20260508230032 | 22 | 266 | 6.4 | 14.5 | 0.00 | 0.00 | 0.00 | 15 | 1017.9 |
| 20260508225516 | 23 | 271 | 4.8 | 14.5 | 0.00 | 0.00 | 0.00 | 16 | 1018.0 |
| 20260508225014 | 23 | 250 | 4.8 | 14.5 | 0.00 | 0.00 | 0.00 | 16 | 1017.8 |
| 20260508224531 | 23 | 281 | 4.8 | 16.1 | 0.00 | 0.00 | 0.00 | 16 | 1018.1 |
| 20260508224013 | 23 | 275 | 4.8 | 17.7 | 0.00 | 0.00 | 0.00 | 17 | 1018.4 |
| 20260508223510 | 23 | 281 | 6.4 | 17.7 | 0.00 | 0.00 | 0.00 | 16 | 1018.3 |
| 20260508223040 | 23 | 267 | 3.2 | 16.1 | 0.00 | 0.00 | 0.00 | 15 | 1018.2 |
| 20260508222514 | 23 | 275 | 4.8 | 14.5 | 0.00 | 0.00 | 0.00 | 15 | 1018.2 |
| 20260508222016 | 23 | 277 | 4.8 | 14.5 | 0.00 | 0.00 | 0.00 | 18 | 1018.3 |
| 20260508221529 | 23 | 263 | 4.8 | 14.5 | 0.00 | 0.00 | 0.00 | 16 | 1018.3 |
| 20260508221013 | 23 | 225 | 6.4 | 14.5 | 0.00 | 0.00 | 0.00 | 16 | 1018.2 |
| 20260508220512 | 22 | 268 | 3.2 | 16.1 | 0.00 | 0.00 | 0.00 | 17 | 1018.2 |
| 20260508220038 | 22 | 302 | 4.8 | 17.7 | 0.00 | 0.00 | 0.00 | 16 | 1018.4 |
| 20260508215511 | 22 | 275 | 8.0 | 17.7 | 0.00 | 0.00 | 0.00 | 16 | 1018.2 |
| 20260508215014 | 22 | 267 | 4.8 | 19.3 | 0.00 | 0.00 | 0.00 | 16 | 1018.3 |
| 20260508214530 | 22 | 253 | 6.4 | 24.1 | 0.00 | 0.00 | 0.00 | 17 | 1018.3 |
| 20260508214013 | 22 | 280 | 6.4 | 24.1 | 0.00 | 0.00 | 0.00 | 16 | 1018.6 |
| 20260508213510 | 22 | 255 | 6.4 | 19.3 | 0.00 | 0.00 | 0.00 | 16 | 1018.4 |
| 20260508213031 | 23 | 284 | 4.8 | 19.3 | 0.00 | 0.00 | 0.00 | 16 | 1018.4 |
| 20260508212511 | 23 | 205 | 6.4 | 16.1 | 0.00 | 0.00 | 0.00 | 19 | 1018.8 |
| 20260508212013 | 22 | 301 | 4.8 | 16.1 | 0.00 | 0.00 | 0.00 | 18 | 1018.5 |
| 20260508211539 | 22 | 267 | 4.8 | 12.9 | 0.00 | 0.00 | 0.00 | 16 | 1018.4 |
| 20260508211013 | 22 | 244 | 4.8 | 14.5 | 0.00 | 0.00 | 0.00 | 17 | 1018.5 |
| 20260508210526 | 22 | 62 | 6.4 | 14.5 | 0.00 | 0.00 | 0.00 | 17 | 1018.6 |
| 20260508210030 | 23 | 276 | 1.6 | 16.1 | 0.00 | 0.00 | 0.00 | 18 | 1018.5 |
| 20260508205510 | 22 | 279 | 6.4 | 16.1 | 0.00 | 0.00 | 0.00 | 18 | 1018.6 |
| 20260508205010 | 22 | 274 | 6.4 | 17.7 | 0.00 | 0.00 | 0.00 | 17 | 1018.6 |
| 20260508204530 | 22 | 13 | 4.8 | 17.7 | 0.00 | 0.00 | 0.00 | 19 | 1018.7 |
| 20260508204013 | 22 | 252 | 3.2 | 17.7 | 0.00 | 0.00 | 0.00 | 19 | 1018.6 |